STARLINK-36112

Last updated on Fri Dec 19 2025 00:02:08 GMT+0000 (Coordinated Universal Time)

1 66944U 25286V 25352.58336806 -.01402278 00000+0 -73483-2 0 9990 2 66944 53.1553 20.9917 0000989 73.1783 71.6624 15.82634123 2931
UTC large
Height (km)
Speed (km/s)
/
Latitude / Longitude
Inclination (degrees)
Orbital Period (minutes)
Azimuth
Elevation
Range (km)
Doppler Factor

Next 0 passes for location: London (51.5072 / 0.1276)

Sorry there are no passes over London.